Location: Pedholt
(56.0260°N, 10.2097°E)
Time: 23:11:49
(UTC+00:00)

Transit 2A Rocket - Pass Details

Date: 06 August 2021
Orbit: 586 x 917 km, 66.7° (Epoch: 26 September)

Event Time Altitude Azimuth Distance (km) Brightness Sun altitude
Rises 17:10:38 0° 300° (WNW) 3,094 9.4 15.6°
Reaches altitude 10° 17:13:13 10° 313° (NW) 2,231 8.5 15.2°
Maximum altitude 17:17:36 28° 12° (NNE) 1,440 6.5 14.6°
Drops below altitude 10° 17:22:20 10° 70° (ENE) 2,421 7.1 14.0°
Sets 17:25:15 0° 82° (E) 3,408 7.8 13.6°
